Welcome to the New NWS' Forecast!
Most changes are behind the scenes, but click here for differences you might notice.
Latest weather observations around

Roanoke, Roanoke Regional Airport (KROA)

Using International System of Units (Switch to English Units)
Date/ Time (EDT) Wind (kph) Vis. (km) Weather Sky Cond. Temp (°C) Rel. Humidity Wind Chill (°C) Heat Index (°C) Pressure Precip. (cm)
Air Dwpt 6 hour Altimeter (hPa) Sea level (hPa) 1 hr 3 hr 6 hr
Max Min
Aug 15 05:54 N 8 16.09 Clear CLR 18 16     87%     1019 1017.8      
Aug 15 04:54 N 5 16.09 Clear CLR 18 16     87%     1018.6 1017.5      
Aug 15 03:54 Calm 16.09 Clear CLR 18 16     87%     1018.6 1017.3      
Aug 15 02:54 NW 5 16.09 Clear CLR 19 16     84%     1018.6 1017.6      
Aug 15 01:54 NNW 11 16.09 Clear CLR 18 16     87%     1019 1017.7      
Aug 15 00:54 W 5 16.09 Clear CLR 19 16     81%     1019 1017.9      
Aug 14 23:54 WNW 5 16.09 Clear CLR 20 17     81%     1019.3 1018      
Aug 14 22:54 NW 11 16.09 Clear CLR 21 17     78%     1018.6 1017.4      
Aug 14 21:54 W 5 16.09 Clear CLR 22 17     71%   22 1018.3 1017      
Aug 14 20:54 NW 8 16.09 Clear CLR 23 17     66%   23 1017.3 1016      
Aug 14 19:54 NW 8 16.09 Mostly Clear FEW095 26 17     58%   26 1016.6 1015.5      
Aug 14 18:54 W 11 16.09 Partly Cloudy SCT095 27 16     51%   28 1016.3 1015.2      
Aug 14 17:54 NW 17 16.09 Partly Cloudy FEW055 SCT080 28 16     46%   28 1016.3 1015      
Aug 14 16:54 W 15 16.09 Partly Cloudy SCT080 28 17     49%   29 1015.9 1014.8      
Aug 14 15:54 WSW 8 16.09 Partly Cloudy FEW055 SCT070 SCT100 29 17     49%   29 1016.3 1014.9      
Aug 14 14:54 W 11 16.09 Mostly Cloudy BKN055 BKN110 28 16     49%   28 1016.6 1015.5      
Aug 14 13:54 NNW 11 16.09 Partly Cloudy FEW050 SCT065 28 17     49%   29 1017.3 1016.1      
Aug 14 12:54 8 16.09 Partly Cloudy SCT040 SCT065 28 17     53%   28 1017.6 1016.5      
Aug 14 11:54 NW 9 16.09 Mostly Cloudy SCT034 SCT044 BKN060 26 18     60%   26 1018.3 1017      
Aug 14 10:54 SW 8 16.09 Partly Cloudy SCT030 SCT200 26 18     62%   26 1018.3 1017.2      
Aug 14 08:54 Calm 16.09 Mostly Clear FEW200 21 17     78%     1018.3 1017.3      
Aug 14 07:54 SSE 8 16.09 Clear CLR 18 16     87%     1018 1016.9      
Aug 14 06:54 NNE 13 16.09 Clear CLR 17 16     90%     1017.6 1016.6      
Aug 14 05:54 NE 8 16.09 Clear CLR 17 16     90%     1016.9 1016      
Aug 14 04:54 Calm 16.09 Clear CLR 17 16     90%     1016.3 1015.2      
Aug 14 03:54 Calm 16.09 Clear CLR 18 16     90%     1016.9 1015.5      
Aug 14 02:54 5 16.09 Clear CLR 17 16     93%     1017.3 1016.1      
Aug 14 01:54 NW 5 16.09 Clear CLR 18 16     90%     1018 1016.7      
Aug 13 23:54 NW 5 16.09 Clear CLR 19 17     87%     1018.3 1017      
Aug 13 22:54 WSW 5 16.09 Clear CLR 19 16     81%     1018 1017      
Aug 13 21:54 NNW 5 16.09 Clear CLR 19 16     81%     1018 1016.9      
Aug 13 20:54 NE 11 16.09 Mostly Clear FEW090 21 16     75%     1018 1016.9      
Aug 13 19:54 NE 13 16.09 Partly Cloudy FEW085 SCT200 22 16     68%   22 1017.3 1016.3      
Aug 13 18:54 N 9 16.09 Mostly Cloudy FEW065 SCT095 BKN200 24 16     60%   24 1016.9 1016      
Aug 13 18:18 ENE 9 16.09 Mostly Cloudy SCT065 BKN080 BKN095 23 16     62%   23 1016.9        
Aug 13 17:54   16.09 Thunderstorms BKN060 BKN070 BKN095 24 16     60%   24 1016.9 1015.8      
Aug 13 16:54 E 9 16.09 Thunderstorms BKN060 BKN080 BKN090 27 18     58%   28 1015.9 1014.6      
Aug 13 16:25 NNW 5 16.09 Thunderstorms BKN060 BKN080 BKN090 28 17     53%   28 1015.6        
Aug 13 15:54 NNW 9 16.09 Mostly Cloudy BKN050 BKN070 BKN085 27 17     54%   28 1015.6 1014.4      
Aug 13 14:54 5 16.09 Mostly Cloudy SCT050 BKN070 BKN085 29 16     46%   29 1016.3 1015      
Aug 13 13:54 NNE 8 16.09 Mostly Clear FEW050 28 17     51%   29 1017.3 1016.1      
Aug 13 12:54 N 8 16.09 Partly Cloudy FEW044 SCT055 28 17     53%   28 1018 1016.8      
Aug 13 11:54 5 16.09 Mostly Clear FEW035 27 19     61%   28 1018.6 1017.4      
Aug 13 10:54 8 16.09 Mostly Clear FEW017 25 19     71%   25 1018.6 1017.5      
Aug 13 08:11 Calm 16.09 Mostly Cloudy BKN010 BKN014 21 18     87%     1019        
Aug 13 07:54 ENE 8 16.09 Partly Cloudy FEW008 SCT021 19 18     93%     1018.6 1017.6      
Aug 13 06:54 WNW 8 16.09 Mostly Clear FEW018 18 18     97%     1018.3 1017.4      
Aug 13 03:26 Calm 16.09 Mostly Cloudy BKN039 19 18     93%     1018.3        
Aug 13 02:54 NNW 5 16.09 Mostly Cloudy BKN019 BKN042 19 18     93%     1018.6 1017.6      
Aug 13 01:54 Calm 16.09 Cloudy FEW031 BKN038 OVC048 21 19     90%     1019 1018     0
Aug 13 00:35 SE 15 16.09 Light Rain OVC009 21 19     93%     1020   0    
Aug 12 23:54 Calm 16.09 Cloudy BKN012 OVC020 21 19     90%     1020 1018.7      
Aug 12 23:26 Calm 16.09 Cloudy BKN014 OVC035 21 19     90%     1019.7        
Aug 12 22:01 E 5 16.09 Partly Cloudy SCT018 21 18     81%     1018.6        
Aug 12 21:54 NNE 11 16.09 Mostly Cloudy SCT018 BKN024 22 18     79%   22 1018.6 1017.4      
Aug 12 21:47 NNE 11 16.09 Mostly Cloudy BKN018 22 18     79%   22 1018.6        
Aug 12 19:54 NE 5 16.09 Mostly Clear FEW110 24 21     82%   24   1016.7     1
Aug 12 18:54 Calm 16.09 Mostly Cloudy FEW100 BKN200 23 20     84%   23 1017.3 1016.3 0    
Notice The following observation data may not be complete
Aug 12 18:44   16.09 Partly Cloudy FEW050 SCT100 SCT110          %         0    
Aug 12 17:54 W 11 16.09 Mostly Cloudy FEW015 SCT110 BKN180 24 21     82%   24 1018 1016.7      
Aug 12 16:54 E 8 16.09 Mostly Cloudy FEW060 SCT120 BKN180 23 21     85%   24 1018 1016.7   1  
Aug 12 14:36 WNW 17 8.05 Light Rain and Fog/Mist FEW055 BKN095 OVC110 21 19     90%     1018.3   1    
Aug 12 14:14 WNW 17 4.83 Thunderstorms and Rain and Fog/Mist BKN031 BKN048 OVC085 20 19     93%     1018.6   1    
Aug 12 14:08 WNW 24 4.83 Heavy Rain and Fog/Mist BKN029 BKN049 OVC070 21 18     87%     1018.3   1    
Aug 12 14:03 NW 17 0.8 Heavy Rain and Fog BKN022 BKN030 OVC070 19 18     93%     1018.3   1    
Aug 12 13:54 NW 21 1.61 Thunderstorms and Rain and Fog/Mist BKN024 BKN030 OVC070 21 18     87%     1019.3 1018.1 1   1
Aug 12 13:43 N 15 0.8 Thunderstorms and Rain and Fog/Mist SCT020 BKN028 OVC033 20 18     90%     1019.3   0    
Aug 12 13:33 W 17 16.09 Thunderstorms and Rain FEW020 OVC029 23 18     74%   24 1019.3   0    
Aug 12 09:54 NE 5 16.09 Mostly Cloudy BKN160 24 20     79%   24 1019 1017.8      
May 15 14:54 S 18 16.09 Mostly Cloudy FEW042 BKN100 BKN160 31 20     52%   33 1014.9 1013.5      
May 14 23:54 ENE 5 16.09 Cloudy OVC070 24 17     66%   24 1017.3 1015.8      
May 14 18:54 S 18 16.09 Partly Cloudy FEW070 SCT100 SCT250 31 17     43%   32 1014.9 1013.4      
May 14 12:54 S 8 16.09 Mostly Clear FEW048 31 17     43%   32 1018 1016.5      
May 14 11:54 8 16.09 Mostly Clear FEW048 30 17     45%   30 1018.3 1016.8      
May 13 17:54 WSW 15 16.09 Clear CLR 33 12     29%   32 1015.6 1014      
May 12 17:54 WSW 9 16.09 Mostly Cloudy FEW080 BKN160 33 13     31%   32 1016.9 1015.3      
May 12 07:54 W 5 16.09 Partly Cloudy SCT250 22 16     70%   22 1021 1019.7      
May 12 06:20 Calm 16.09 Partly Cloudy SCT250 19 14     73%     1020        
May 11 14:54 9 16.09 Partly Cloudy SCT060 30 13     35%   29 1017.3 1015.9      
Jun 12 02:54 WNW 8 16.09 Clear CLR 22 15     66%   22 1021.3 1019.9      
Jun 10 01:54 Calm 16.09 Clear CLR 15 12     83%     1018.3 1017.3      
Jun 09 11:54 NW 24 16.09 Partly Cloudy SCT043 SCT050 23 11     45%   23 1015.6 1014.7      
Jun 09 02:54 W 13 16.09 Mostly Cloudy BKN090 15 13     90%     1012.5 1011.8      
Jun 09 00:54 W 9 16.09 Cloudy OVC090 15 14     93%     1012.9 1012.3      
Jun 08 09:54 ENE 11 16.09 Mostly Cloudy BKN028 BKN035 16 11     72%     1016.3 1015.7      
Jun 07 22:54 NE 11 16.09 Mostly Cloudy FEW027 BKN041 BKN048 17 12     72%     1017.3 1016.5      
Jun 07 11:54 NE 13 16.09 Partly Cloudy SCT044 22 10     47%   21 1014.6 1013.6      
Jun 06 07:54 9 16.09 Partly Cloudy FEW040 SCT280 20 16     76%     1010.2 1009.2      
Jun 05 15:54 WSW 9 16.09 Light Rain FEW013 OVC060 20 18     90%     1009.5 1008.5 0